US 13 & DE 14, Harrington DE USA current weather conditions

sailwx.info

Wind from 090 at 8 knots gusting 14

Air temperature 9.5° C
Dewpoint 9.0° C

Last reported at 2020-Jan-25 09:55 UTC.
Time now 2020-Jan-25 10:54 UTC

Location: N 38°55' W 075°34'.
View on Google Maps.

See reports from other nearby stations

  
Tides and Currents Weather Stations Pressure Air Temp Water Temp Dewpoint Dewpoint Depression Visibility Wind Speed Wind Dir Waves Ship Positions
date/time (UTC)wind fromknots sea level pressurealtimeterstation pressurevisibilityair tempwater tempwave heightnotes
2020-Jan-25 09:55 090 8 gusting 14 9.5
2020-Jan-25 09:50 090 6 gusting 15 9.5
2020-Jan-25 09:45 095 8 gusting 18 9.5
2020-Jan-25 09:40 100 9 gusting 18 9.5
2020-Jan-25 09:35 105 11 gusting 17 9.5
2020-Jan-25 09:30 095 7 gusting 17 9.5
2020-Jan-25 09:25 100 12 gusting 17 9.3
2020-Jan-25 09:20 085 7 gusting 15 9.2
2020-Jan-25 09:15 085 8 gusting 15 9.2
2020-Jan-25 09:10 090 9 gusting 15 9.2
2020-Jan-25 09:05 100 9 gusting 15 9.2
2020-Jan-25 09:00 095 10 gusting 15 9.2
2020-Jan-25 08:55 100 9 gusting 15 9.2
2020-Jan-25 08:50 085 8 gusting 13 9.2
2020-Jan-25 08:45 100 9 gusting 15 9.2
2020-Jan-25 08:40 105 9 gusting 15 9.3
2020-Jan-25 08:35 110 9 gusting 17 9.3
2020-Jan-25 08:30 095 9 gusting 18 9.3
2020-Jan-25 08:25 095 9 gusting 16 9.2
2020-Jan-25 08:20 110 9 gusting 14 9.2
2020-Jan-25 08:15 095 10 gusting 17 9.2
2020-Jan-25 08:10 100 10 gusting 19 9.2
2020-Jan-25 08:05 110 11 gusting 19 9.1
2020-Jan-25 08:00 095 8 gusting 16 9.1
2020-Jan-25 07:55 090 10 gusting 18 9.1
2020-Jan-25 07:50 100 10 gusting 19 9.0
2020-Jan-25 07:45 095 8 gusting 19 9.0
2020-Jan-25 07:40 110 9 gusting 16 9.0
2020-Jan-25 07:35 100 8 gusting 16 9.0
2020-Jan-25 07:30 095 11 gusting 16 9.0
2020-Jan-25 07:25 110 11 gusting 16 9.0
2020-Jan-25 07:20 100 8 gusting 14 8.8
2020-Jan-25 07:15 095 9 gusting 15 8.7
2020-Jan-25 07:10 095 9 gusting 15 8.7
2020-Jan-25 07:05 085 7 gusting 15 8.6
2020-Jan-25 07:00 100 11 gusting 15 8.6
2020-Jan-25 06:55 095 10 gusting 16 8.6
2020-Jan-25 06:50 100 9 gusting 16 8.5
2020-Jan-25 06:45 105 9 gusting 19 8.5
2020-Jan-25 06:40 090 9 gusting 19 8.3
2020-Jan-25 06:35 095 8 gusting 13 8.3
2020-Jan-25 06:30 100 6 gusting 16 8.2
2020-Jan-25 06:25 105 10 gusting 16 8.3
2020-Jan-25 06:20 090 10 gusting 14 8.3
2020-Jan-25 06:15 090 7 gusting 12 8.3
2020-Jan-25 06:10 100 6 gusting 12 8.2
2020-Jan-25 06:05 080 6 gusting 13 8.2
2020-Jan-25 06:00 085 7 gusting 13 8.2
2020-Jan-25 05:55 105 7 gusting 14 8.1
2020-Jan-25 05:50 085 8 gusting 14 8.1
2020-Jan-25 05:45 095 9 gusting 14 8.2
2020-Jan-25 05:40 100 8 gusting 14 8.1
2020-Jan-25 05:35 095 9 gusting 15 8.2
2020-Jan-25 05:30 085 7 gusting 13 8.1
2020-Jan-25 05:25 090 8 gusting 13 8.1
2020-Jan-25 05:20 100 7 gusting 15 8.1
2020-Jan-25 05:15 090 9 gusting 15 8.2
2020-Jan-25 05:10 090 9 gusting 14 8.1
2020-Jan-25 05:05 105 8 gusting 14 8.2
2020-Jan-25 05:00 100 8 gusting 14 8.2
2020-Jan-25 04:55 090 8 gusting 13 8.2
2020-Jan-25 04:50 105 8 gusting 17 8.2
2020-Jan-25 04:45 080 9 gusting 17 8.3
2020-Jan-25 04:40 105 8 gusting 17 8.2
2020-Jan-25 04:35 090 10 gusting 17 8.3
2020-Jan-25 04:30 085 8 gusting 17 8.3
2020-Jan-25 04:25 090 10 gusting 17 8.3
2020-Jan-25 04:20 100 7 gusting 14 8.3
2020-Jan-25 04:15 110 8 gusting 14 8.3
2020-Jan-25 04:10 105 8 gusting 13 8.3
2020-Jan-25 04:05 100 8 gusting 14 8.3
2020-Jan-25 04:00 095 8 gusting 14 8.2
2020-Jan-25 03:55 105 9 gusting 14 8.1
2020-Jan-25 03:50 095 9 gusting 14 8.2
2020-Jan-25 03:45 105 8 gusting 15 8.1
2020-Jan-25 03:40 100 9 gusting 15 8.1
2020-Jan-25 03:35 095 7 gusting 14 8.1
2020-Jan-25 03:30 090 7 gusting 14 8.1
2020-Jan-25 03:25 100 7 gusting 14 8.1
2020-Jan-25 03:20 110 8 gusting 15 8.1
2020-Jan-25 03:15 095 7 gusting 15 8.1
2020-Jan-25 03:10 090 8 gusting 14 8.0
2020-Jan-25 03:05 095 10 gusting 16 8.0
2020-Jan-25 03:00 095 9 gusting 16 7.8
2020-Jan-25 02:55 090 9 gusting 13 7.7
2020-Jan-25 02:50 090 8 gusting 13 7.7
2020-Jan-25 02:45 095 8 gusting 14 7.6
2020-Jan-25 02:40 090 7 gusting 14 7.6
2020-Jan-25 02:35 080 7 gusting 12 7.6
2020-Jan-25 02:30 100 6 gusting 12 7.6
2020-Jan-25 02:25 095 6 gusting 12 7.5
2020-Jan-25 02:20 100 6 gusting 12 7.5
2020-Jan-25 02:15 095 6 gusting 11 7.5
2020-Jan-25 02:10 095 6 gusting 11 7.6
2020-Jan-25 02:05 095 5 gusting 11 7.6
2020-Jan-25 02:00 090 5 gusting 11 7.6
2020-Jan-25 01:55 105 6 gusting 10 7.6
2020-Jan-25 01:50 105 4 gusting 11 7.6
2020-Jan-25 01:45 095 6 gusting 11 7.8
2020-Jan-25 01:40 080 4 gusting 11 7.7
2020-Jan-25 01:35 095 6 gusting 11 7.8
2020-Jan-25 01:30 095 6 gusting 11 7.8
2020-Jan-25 01:25 090 6 gusting 11 7.8
2020-Jan-25 01:20 100 6 gusting 11 7.8
2020-Jan-25 01:15 105 7 gusting 11 8.0
2020-Jan-25 01:10 090 6 gusting 10 8.1
2020-Jan-25 01:05 090 6 gusting 10 8.1
2020-Jan-25 01:00 090 7 gusting 11 8.1
2020-Jan-25 00:55 105 6 gusting 11 8.1
2020-Jan-25 00:50 090 6 gusting 11 8.1
2020-Jan-25 00:45 090 6 gusting 9 8.1
2020-Jan-25 00:40 095 6 gusting 11 8.1
2020-Jan-25 00:35 090 6 gusting 12 8.1
2020-Jan-25 00:30 095 8 gusting 12 8.1
2020-Jan-25 00:25 085 8 gusting 12 8.1
2020-Jan-25 00:20 090 7 gusting 12 8.1
2020-Jan-25 00:15 085 6 gusting 13 8.1
2020-Jan-25 00:10 080 6 gusting 13 8.1
2020-Jan-25 00:05 095 7 gusting 13 8.2
2020-Jan-25 00:00 085 6 gusting 16 8.2
2020-Jan-24 23:55 095 6 gusting 16 8.2
2020-Jan-24 23:50 095 9 gusting 15 8.2
2020-Jan-24 23:45 100 8 gusting 13 8.3
2020-Jan-24 23:40 095 7 gusting 13 8.3
2020-Jan-24 23:35 085 7 gusting 13 8.3
2020-Jan-24 23:30 090 7 gusting 12 8.3
2020-Jan-24 23:25 100 6 gusting 13 8.3
2020-Jan-24 23:20 095 7 gusting 14 8.3
2020-Jan-24 23:15 100 9 gusting 14 8.5
2020-Jan-24 23:10 080 8 gusting 15 8.3
2020-Jan-24 23:05 100 10 gusting 15 8.5
2020-Jan-24 23:00 085 11 gusting 14 8.5
2020-Jan-24 22:55 075 6 gusting 13 8.5
2020-Jan-24 22:50 090 6 gusting 12 8.5
2020-Jan-24 22:45 095 6 gusting 15 8.6
2020-Jan-24 22:40 095 9 gusting 15 8.6
2020-Jan-24 22:35 080 10 gusting 14 8.6
2020-Jan-24 22:30 095 6 gusting 14 8.6
2020-Jan-24 22:25 090 8 gusting 16 8.6
2020-Jan-24 22:20 095 9 gusting 16 8.6
2020-Jan-24 22:15 090 6 gusting 13 8.7
2020-Jan-24 22:10 110 6 gusting 14 8.6
2020-Jan-24 22:05 095 9 gusting 14 8.7
2020-Jan-24 22:00 100 7 gusting 13 8.6
2020-Jan-24 21:55 095 7 gusting 13 8.7
2020-Jan-24 21:50 095 8 gusting 14 8.7
2020-Jan-24 21:45 095 11 gusting 14 8.7
2020-Jan-24 21:40 085 9 gusting 13 8.8
2020-Jan-24 21:35 075 7 gusting 13 9.0
2020-Jan-24 21:30 100 5 gusting 13 9.1
2020-Jan-24 21:25 095 8 gusting 15 9.1
2020-Jan-24 21:20 115 11 gusting 16 9.1
2020-Jan-24 21:15 100 8 gusting 16 9.1
2020-Jan-24 21:10 115 9 gusting 16 9.5
2020-Jan-24 21:05 100 6 gusting 13 9.5
2020-Jan-24 21:00 105 6 gusting 16 9.6
2020-Jan-24 20:55 095 9 gusting 16 9.6
2020-Jan-24 20:50 105 9 gusting 16 9.7
2020-Jan-24 20:45 100 10 gusting 19 10.1
2020-Jan-24 20:40 115 7 gusting 18 10.2
2020-Jan-24 20:35 100 6 gusting 14 10.3
2020-Jan-24 20:30 090 10 gusting 17 10.6
2020-Jan-24 20:25 095 10 gusting 17 10.7
2020-Jan-24 20:20 100 12 gusting 16 10.8
2020-Jan-24 20:15 100 12 gusting 18 10.8
2020-Jan-24 20:10 085 11 gusting 18 10.8
2020-Jan-24 20:05 090 11 gusting 17 10.9
2020-Jan-24 20:00 100 10 gusting 16 11.2
2020-Jan-24 19:55 085 10 gusting 16 11.2
2020-Jan-24 19:50 105 11 gusting 16 11.2
2020-Jan-24 19:45 080 8 gusting 16 11.2
2020-Jan-24 19:40 095 10 gusting 20 11.2
2020-Jan-24 19:35 090 10 gusting 20 11.2
2020-Jan-24 19:30 095 13 gusting 20 11.2
2020-Jan-24 19:25 090 11 gusting 16 11.6
2020-Jan-24 19:20 100 8 gusting 15 11.8
2020-Jan-24 19:15 085 7 gusting 12 12.2
2020-Jan-24 19:10 095 7 gusting 12 12.2
2020-Jan-24 19:05 115 6 gusting 12 11.9
2020-Jan-24 19:00 120 8 gusting 16 11.6
2020-Jan-24 18:55 095 11 gusting 19 11.3
2020-Jan-24 18:50 115 11 gusting 19 11.2
2020-Jan-24 18:45 085 10 gusting 18 11.3
2020-Jan-24 18:40 100 11 gusting 18 11.2
2020-Jan-24 18:35 095 8 gusting 16 11.2
2020-Jan-24 18:30 105 8 gusting 16 10.9
2020-Jan-24 18:25 090 8 gusting 16 10.8
2020-Jan-24 18:20 100 6 gusting 13 10.9
2020-Jan-24 18:15 130 5 gusting 9 11.1
2020-Jan-24 18:10 090 6 gusting 10 11.2
2020-Jan-24 18:05 095 7 gusting 12 10.8
2020-Jan-24 18:00 115 6 gusting 12 10.8
2020-Jan-24 17:55 100 5 gusting 14 10.9
2020-Jan-24 17:50 085 9 gusting 14 10.8
2020-Jan-24 17:45 120 8 gusting 12 11.1
2020-Jan-24 17:40 120 5 gusting 13 11.2
2020-Jan-24 17:35 090 8 gusting 13 10.8
2020-Jan-24 17:30 095 7 gusting 11 10.7
2020-Jan-24 17:25 090 6 gusting 11 10.3
2020-Jan-24 17:20 100 7 gusting 11 10.2
2020-Jan-24 17:15 115 6 gusting 11 10.0
2020-Jan-24 17:10 080 7 gusting 11 9.6
2020-Jan-24 17:05 080 4 gusting 11 9.5
2020-Jan-24 17:00 090 7 gusting 11 9.1
2020-Jan-24 16:55 095 6 gusting 11 9.0
2020-Jan-24 16:50 095 6 gusting 14 8.7
2020-Jan-24 16:45 110 8 gusting 14 8.6
2020-Jan-24 16:40 100 7 gusting 13 8.5
2020-Jan-24 16:35 100 6 gusting 10 8.2
2020-Jan-24 16:30 095 5 gusting 12 8.1
2020-Jan-24 16:25 095 8 gusting 13 8.1
2020-Jan-24 16:20 090 7 gusting 13 8.0
2020-Jan-24 16:15 105 8 gusting 11 7.8
2020-Jan-24 16:10 100 7 gusting 9 7.6
2020-Jan-24 16:05 090 6 gusting 8 7.5
2020-Jan-24 16:00 090 4 gusting 8 7.3
2020-Jan-24 15:55 080 5 gusting 8 7.2
2020-Jan-24 15:50 085 6 gusting 8 7.1
2020-Jan-24 15:45 095 5 gusting 9 7.0
2020-Jan-24 15:40 095 6 gusting 9 6.8
2020-Jan-24 15:35 085 4 gusting 10 6.7
2020-Jan-24 15:30 090 5 gusting 10 6.6
2020-Jan-24 15:25 095 6 gusting 10 6.6
2020-Jan-24 15:20 085 5 gusting 9 6.6
2020-Jan-24 15:15 085 4 gusting 9 6.5
2020-Jan-24 15:10 070 5 gusting 9 6.2
2020-Jan-24 15:05 085 4 gusting 9 6.1
2020-Jan-24 15:00 075 5 gusting 8 5.8
2020-Jan-24 14:55 075 4 gusting 7 5.7
2020-Jan-24 14:50 090 4 gusting 6 5.6
2020-Jan-24 14:45 085 4 gusting 5 5.5
2020-Jan-24 14:40 090 3 gusting 6 5.5
2020-Jan-24 14:35 055 3 gusting 6 5.3
2020-Jan-24 14:30 060 4 gusting 6 5.2
2020-Jan-24 14:25 050 3 gusting 6 5.1
2020-Jan-24 14:20 065 3 gusting 6 5.0
2020-Jan-24 14:15 085 2 gusting 5 4.6
2020-Jan-24 14:10 050 2 gusting 5 4.5
2020-Jan-24 14:05 075 3 gusting 7 4.2
2020-Jan-24 14:00 060 4 gusting 7 4.1
2020-Jan-24 13:55 050 2 gusting 4 4.0
2020-Jan-24 13:50 055 2 gusting 4 3.7
2020-Jan-24 13:45 040 2 gusting 4 3.5
2020-Jan-24 13:40 040 3 gusting 4 3.2
2020-Jan-24 13:35 040 2 gusting 4 3.1
2020-Jan-24 13:30 015 2 gusting 3 3.1
2020-Jan-24 13:25 040 1 gusting 3 2.7
2020-Jan-24 13:20 040 1 gusting 3 2.6
2020-Jan-24 13:15 015 1 gusting 3 2.4
2020-Jan-24 13:10 060 1 gusting 3 2.2
2020-Jan-24 13:05 065 2 gusting 3 2.1
2020-Jan-24 13:00 055 1 gusting 4 2.1
2020-Jan-24 12:55 060 2 gusting 3 2.0
2020-Jan-24 12:50 070 1 gusting 4 1.9
2020-Jan-24 12:45 065 1 gusting 4 2.0
2020-Jan-24 12:40 050 2 gusting 4 2.0
2020-Jan-24 12:35 050 2 gusting 3 2.0
2020-Jan-24 12:30 055 2 gusting 4 1.7
2020-Jan-24 12:25 035 2 gusting 5 1.6
2020-Jan-24 12:20 035 2 gusting 5 1.6
2020-Jan-24 12:15 050 1 gusting 3 1.6
2020-Jan-24 12:10 055 2 gusting 5 1.6
2020-Jan-24 12:05 055 3 gusting 5 1.6
2020-Jan-24 12:00 040 3 gusting 6 1.6
2020-Jan-24 11:55 060 3 gusting 6 1.6
2020-Jan-24 11:50 035 3 gusting 5 1.5
2020-Jan-24 11:45 030 1 gusting 4 1.4
2020-Jan-24 11:40 040 3 gusting 4 1.2
2020-Jan-24 11:35 050 3 gusting 4 1.4
2020-Jan-24 11:30 025 2 gusting 4 1.2
2020-Jan-24 11:25 050 2 gusting 4 1.4
2020-Jan-24 11:20 050 3 gusting 6 1.2
2020-Jan-24 11:15 060 3 gusting 6 1.2
2020-Jan-24 11:10 060 3 gusting 5 1.2
2020-Jan-24 11:05 040 2 gusting 7 1.2
2020-Jan-24 11:00 050 4 gusting 7 1.2
2020-Jan-24 10:55 045 4 gusting 6 1.1
2020-Jan-24 10:50 040 3 gusting 6 1.0
2020-Jan-24 10:45 040 2 gusting 6 1.1
2020-Jan-24 10:40 045 3 gusting 6 1.0
2020-Jan-24 10:35 040 3 gusting 5 1.0
2020-Jan-24 10:30 035 3 gusting 5 1.0
2020-Jan-24 10:25 040 3 gusting 6 1.0
2020-Jan-24 10:20 055 4 gusting 6 0.7
2020-Jan-24 10:15 045 3 gusting 5 0.6
2020-Jan-24 10:10 055 3 gusting 5 0.6
2020-Jan-24 10:05 040 2 gusting 3 0.5
2020-Jan-24 10:00 045 2 gusting 4 0.3
2020-Jan-24 09:55 045 2 gusting 5 0.5
2020-Jan-24 09:50 025 3 gusting 4 0.2
2020-Jan-24 09:45 010 2 gusting 4 0.1
2020-Jan-24 09:40 020 3 gusting 4 0.1
2020-Jan-24 09:35 020 3 gusting 4 0.1
2020-Jan-24 09:30 030 2 gusting 3 -0.0
2020-Jan-24 09:25 010 1 gusting 3 -0.0
2020-Jan-24 09:20 -0.0
2020-Jan-24 09:15 025 2 gusting 5 0.1
2020-Jan-24 09:10 025 3 gusting 5 0.1
2020-Jan-24 09:05 020 4 gusting 5 -0.0
2020-Jan-24 09:00 020 2 gusting 4 -0.0
2020-Jan-24 08:55 025 2 gusting 4 0.1
2020-Jan-24 08:50 025 3 gusting 4 0.1
2020-Jan-24 08:45 030 3 gusting 5 -0.0
2020-Jan-24 08:40 025 3 gusting 5 -0.3
2020-Jan-24 08:35 025 2 gusting 3 -0.4
2020-Jan-24 08:30 005 1 gusting 3 -0.5
2020-Jan-24 08:25 035 0 gusting 1 -0.8
2020-Jan-24 08:20 005 0 gusting 1 -0.8
2020-Jan-24 08:15 -0.7
2020-Jan-24 08:10 -0.5
2020-Jan-24 08:05 -0.4
2020-Jan-24 08:00 -0.4
2020-Jan-24 07:55 355 1 gusting 2 -0.4
2020-Jan-24 07:50 355 0 gusting 0 -0.3
2020-Jan-24 07:45 350 -0.3
2020-Jan-24 07:40 355 0 gusting 1 -0.0
2020-Jan-24 07:35 350 0 gusting 1 0.1
2020-Jan-24 07:30 355 0 gusting 2 0.1
2020-Jan-24 07:25 350 1 gusting 2 0.1
2020-Jan-24 07:20 005 1 gusting 3 -0.0
2020-Jan-24 07:15 010 2 gusting 4 -0.0
2020-Jan-24 07:10 030 2 gusting 4 -0.0
2020-Jan-24 07:05 020 2 gusting 3 -0.3
2020-Jan-24 07:00 030 1 gusting 3 -0.1
2020-Jan-24 06:55 040 1 gusting 3 -0.1
2020-Jan-24 06:50 030 2 gusting 4 -0.3
2020-Jan-24 06:45 035 1 gusting 4 -0.1
2020-Jan-24 06:40 030 1 gusting 4 0.1
2020-Jan-24 06:35 030 2 gusting 3 0.1
2020-Jan-24 06:30 045 1 gusting 2 -0.3
2020-Jan-24 06:25 045 1 gusting 3 -0.4
2020-Jan-24 06:20 075 1 gusting 5 -0.4
2020-Jan-24 06:15 045 4 gusting 5 -0.3
2020-Jan-24 06:10 055 2 gusting 3 -0.4
2020-Jan-24 06:05 050 1 gusting 1 -0.3
2020-Jan-24 06:00 030 -0.3
2020-Jan-24 05:55 030 -0.3
2020-Jan-24 05:50 030 0 gusting 1 -0.1
2020-Jan-24 05:45 030 0 gusting 1 0.1
2020-Jan-24 05:40 030 0 gusting 1 0.1
2020-Jan-24 05:35 030 1 gusting 1 0.2
2020-Jan-24 05:30 030 0.3
2020-Jan-24 05:25 030 0.3
2020-Jan-24 05:20 030 0.3
2020-Jan-24 05:15 030 0.3
2020-Jan-24 05:10 040 1 gusting 3 0.3
2020-Jan-24 05:05 055 1 gusting 3 0.2
2020-Jan-24 05:00 045 2 gusting 3 0.2
2020-Jan-24 04:55 025 1 gusting 2 0.3
2020-Jan-24 04:50 025 0 gusting 0 0.2
2020-Jan-24 04:45 035 0.1
2020-Jan-24 04:40 035 0.1
2020-Jan-24 04:35 035 0.1
2020-Jan-24 04:30 035 0 gusting 2 0.2
2020-Jan-24 04:25 030 1 gusting 2 0.3
2020-Jan-24 04:20 015 0 gusting 1 0.3
2020-Jan-24 04:15 020 0.5
2020-Jan-24 04:10 025 0.5
2020-Jan-24 04:05 025 0.6
2020-Jan-24 04:00 025 0.6
2020-Jan-24 03:55 005 0.7
2020-Jan-24 03:50 005 0.7
2020-Jan-24 03:45 005 0 gusting 1 0.8
2020-Jan-24 03:40 005 0.8
2020-Jan-24 03:35 005 0.7
2020-Jan-24 03:30 005 0.6
2020-Jan-24 03:25 010 0.6
2020-Jan-24 03:20 010 0.7
2020-Jan-24 03:15 0.8
2020-Jan-24 03:10 010 0.8
2020-Jan-24 03:05 010 1.0
2020-Jan-24 03:00 010 1.1
2020-Jan-24 02:55 1.1
2020-Jan-24 02:50 005 1.1
2020-Jan-24 02:45 355 1.1
2020-Jan-24 02:40 1.1
2020-Jan-24 02:35 005 1.1
2020-Jan-24 02:30 340 1 gusting 3 1.0
2020-Jan-24 02:25 025 1 gusting 2 1.1
2020-Jan-24 02:20 340 1.1
2020-Jan-24 02:15 330 1.1
2020-Jan-24 02:10 320 1 gusting 1 1.2
2020-Jan-24 02:05 320 1.2
2020-Jan-24 02:00 320 1 gusting 2 1.2
2020-Jan-24 01:55 350 0 gusting 1 1.2
2020-Jan-24 01:50 1.2
2020-Jan-24 01:45 1.1
2020-Jan-24 01:40 1.2
2020-Jan-24 01:35 1.4
2020-Jan-24 01:30 1.6
2020-Jan-24 01:25 1.9
2020-Jan-24 01:20 305 0 gusting 2 1.7
2020-Jan-24 01:15 080 0 gusting 1 1.6
2020-Jan-24 01:10 085 1 gusting 1 1.7
2020-Jan-24 01:05 080 1.9
2020-Jan-24 01:00 085 0 gusting 2 1.9
2020-Jan-24 00:55 095 1 gusting 2 1.9
2020-Jan-24 00:50 095 1 gusting 2 2.0
2020-Jan-24 00:45 120 0 gusting 1 2.1
2020-Jan-24 00:40 120 2.1
2020-Jan-24 00:35 120 0 gusting 2 1.7
2020-Jan-24 00:30 140 0 gusting 2 1.7
2020-Jan-24 00:25 125 1 gusting 2 1.9
2020-Jan-24 00:20 110 1 gusting 1 2.0
2020-Jan-24 00:15 085 1 gusting 2 1.9
2020-Jan-24 00:10 110 2 gusting 3 1.7
2020-Jan-24 00:05 085 2 gusting 3 1.7
2020-Jan-24 00:00 090 2 gusting 2 1.7
2020-Jan-23 23:55 100 1 gusting 2 1.7
2020-Jan-23 23:50 130 1 gusting 1 1.9
2020-Jan-23 23:45 115 0 gusting 1 2.1
2020-Jan-23 23:40 115 1 gusting 1 2.4
2020-Jan-23 23:35 125 0 gusting 1 2.4
2020-Jan-23 23:30 125 0 gusting 1 2.5
2020-Jan-23 23:25 135 0 gusting 1 2.6
2020-Jan-23 23:20 115 0 gusting 0 2.7
2020-Jan-23 23:15 100 2.9
2020-Jan-23 23:10 100 0 gusting 1 3.0
2020-Jan-23 23:05 085 0 gusting 1 3.1
2020-Jan-23 23:00 070 3.1
2020-Jan-23 22:55 070 0 gusting 1 3.1
2020-Jan-23 22:50 070 1 gusting 1 3.2
2020-Jan-23 22:45 070 1 gusting 1 3.4
2020-Jan-23 22:40 070 0 gusting 2 3.5
2020-Jan-23 22:35 075 1 gusting 3 3.6
2020-Jan-23 22:30 090 2 gusting 3 3.9
2020-Jan-23 22:25 090 1 gusting 1 4.1
2020-Jan-23 22:20 090 4.5
2020-Jan-23 22:15 090 0 gusting 1 4.6
2020-Jan-23 22:10 190 0 gusting 1 4.6
2020-Jan-23 22:05 110 1 gusting 2 4.7
2020-Jan-23 22:00 120 0 gusting 2 4.8
2020-Jan-23 21:55 150 0 gusting 2 5.1
2020-Jan-23 21:50 180 1 gusting 2 5.1
2020-Jan-23 21:45 195 1 gusting 2 5.1
2020-Jan-23 21:40 135 0 gusting 2 5.1
2020-Jan-23 21:35 130 1 gusting 2 5.1
2020-Jan-23 21:30 095 1 gusting 2 5.1
2020-Jan-23 21:25 065 1 gusting 2 5.2
2020-Jan-23 21:20 120 2 gusting 2 5.2
2020-Jan-23 21:15 105 1 gusting 2 5.3
2020-Jan-23 21:10 110 1 gusting 2 5.3
2020-Jan-23 21:05 105 1 gusting 1 5.5
2020-Jan-23 21:00 085 0 gusting 1 5.6
2020-Jan-23 20:55 075 0 gusting 1 5.5
2020-Jan-23 20:50 075 0 gusting 2 5.5
2020-Jan-23 20:45 080 1 gusting 2 5.5
2020-Jan-23 20:40 080 1 gusting 2 5.5
2020-Jan-23 20:35 100 0 gusting 1 5.6
2020-Jan-23 20:30 090 1 gusting 2 5.6
2020-Jan-23 20:25 115 0 gusting 2 5.6
2020-Jan-23 20:20 070 0 gusting 3 5.6
2020-Jan-23 20:15 100 1 gusting 3 5.6
2020-Jan-23 20:10 165 0 gusting 2 5.6
2020-Jan-23 20:05 105 1 gusting 4 5.6
2020-Jan-23 20:00 030 2 gusting 4 5.6
2020-Jan-23 19:55 055 2 gusting 3 5.6
2020-Jan-23 19:50 050 1 gusting 4 5.6
2020-Jan-23 19:45 100 2 gusting 4 5.5
2020-Jan-23 19:40 050 2 gusting 6 5.5
2020-Jan-23 19:35 075 4 gusting 7 5.3
2020-Jan-23 19:30 090 3 gusting 7 5.5
2020-Jan-23 19:25 090 2 gusting 7 5.6
2020-Jan-23 19:20 080 3 gusting 7 5.3
2020-Jan-23 19:15 090 4 gusting 6 5.5
2020-Jan-23 19:10 100 4 gusting 6 5.5
2020-Jan-23 19:05 095 3 gusting 5 5.6
2020-Jan-23 19:00 095 4 gusting 5 5.7
2020-Jan-23 18:55 060 2 gusting 5 5.8
2020-Jan-23 18:50 085 3 gusting 4 5.7
2020-Jan-23 18:45 010 1 gusting 6 5.7
2020-Jan-23 18:40 090 3 gusting 6 5.6
2020-Jan-23 18:35 095 3 gusting 6 5.6
2020-Jan-23 18:30 105 4 gusting 7 5.6
2020-Jan-23 18:25 075 4 gusting 7 5.7
2020-Jan-23 18:20 085 4 gusting 7 5.6
2020-Jan-23 18:15 100 5 gusting 7 5.6
2020-Jan-23 18:10 045 3 gusting 5 6.0
2020-Jan-23 18:05 070 3 gusting 5 5.8
2020-Jan-23 18:00 055 3 gusting 6 5.8
2020-Jan-23 17:55 035 3 gusting 6 5.8
2020-Jan-23 17:50 055 4 gusting 7 5.6
2020-Jan-23 17:40 095 3 gusting 6 6.0
2020-Jan-23 17:35 055 3 gusting 6 6.0
2020-Jan-23 17:30 055 3 gusting 5 6.5
2020-Jan-23 17:25 030 2 gusting 5 6.1
2020-Jan-23 17:20 030 4 gusting 5 5.8
2020-Jan-23 17:15 355 3 gusting 5 5.8
2020-Jan-23 17:10 025 2 gusting 5 5.7
2020-Jan-23 17:05 5.3
2020-Jan-23 17:00 020 1 gusting 5 5.1
2020-Jan-23 16:55 5.1
2020-Jan-23 16:50 010 3 gusting 5 5.1
2020-Jan-23 16:45 020 3 gusting 5 5.1
2020-Jan-23 16:40 050 2 gusting 5 4.8
2020-Jan-23 16:35 025 2 gusting 4 4.7
2020-Jan-23 16:30 4.6
2020-Jan-23 16:25 325 1 gusting 6 4.5
2020-Jan-23 16:20 025 3 gusting 6 4.3
2020-Jan-23 16:15 065 2 gusting 6 4.2
2020-Jan-23 16:10 010 3 gusting 5 4.2
2020-Jan-23 16:05 045 2 gusting 4 4.1
2020-Jan-23 16:00 005 1 gusting 4 4.0
2020-Jan-23 15:55 050 2 gusting 6 3.6
2020-Jan-23 15:50 025 3 gusting 6 3.6
2020-Jan-23 15:45 3.6
2020-Jan-23 15:40 020 3 gusting 5 3.5
2020-Jan-23 15:35 355 3 gusting 5 3.5
2020-Jan-23 15:30 005 3 gusting 4 3.2
2020-Jan-23 15:25 350 1 gusting 5 3.1
2020-Jan-23 15:20 030 3 gusting 5 3.1
2020-Jan-23 15:15 020 2 gusting 4 3.1
2020-Jan-23 15:10 015 2 gusting 3 3.1
2020-Jan-23 15:05 3.0
2020-Jan-23 15:00 025 3 gusting 4 2.7
2020-Jan-23 14:55 035 1 gusting 4 2.5
2020-Jan-23 14:50 045 3 gusting 4 2.2
2020-Jan-23 14:45 040 2 gusting 3 2.2
2020-Jan-23 14:40 050 1 gusting 2 2.1
2020-Jan-23 14:35 055 0 gusting 3 1.7
2020-Jan-23 14:30 030 1 gusting 3 1.6
2020-Jan-23 14:25 040 1 gusting 3 1.1
2020-Jan-23 14:20 030 2 gusting 4 1.0
2020-Jan-23 14:15 040 2 gusting 4 0.6
2020-Jan-23 14:10 035 3 gusting 4 0.5
2020-Jan-23 14:05 050 2 gusting 4 0.2
2020-Jan-23 14:00 040 2 gusting 3 -0.0
2020-Jan-23 13:55 115 0 gusting 1 -0.3
2020-Jan-23 13:50 115 -0.8
2020-Jan-23 13:45 115 -1.3
2020-Jan-23 13:40 115 -1.6
2020-Jan-23 13:35 130 -2.1
2020-Jan-23 13:30 055 -2.5
2020-Jan-23 13:25 030 1 gusting 2 -2.9
2020-Jan-23 13:20 100 0 gusting 1 -3.1
2020-Jan-23 13:15 100 -3.3
2020-Jan-23 13:10 100 0 gusting 0 -3.4
2020-Jan-23 13:05 140 -3.6
2020-Jan-23 13:00 140 -3.9
2020-Jan-23 12:55 120 -4.2
2020-Jan-23 12:50 125 0 gusting 0 -4.4
2020-Jan-23 12:45 125 -4.5
2020-Jan-23 12:40 130 -4.7
2020-Jan-23 12:35 130 0 gusting 1 -4.8
2020-Jan-23 12:30 125 -5.0
2020-Jan-23 12:25 125 -5.3
2020-Jan-23 12:20 095 0 gusting 1 -5.4
2020-Jan-23 12:15 090 1 gusting 1 -5.4
2020-Jan-23 12:10 090 1 gusting 1 -5.4
2020-Jan-23 12:05 090 1 gusting 2 -5.4
2020-Jan-23 12:00 090 2 gusting 2 -5.4
2020-Jan-23 11:55 100 1 gusting 2 -5.4
2020-Jan-23 11:50 170 -5.4
2020-Jan-23 11:45 170 0 gusting 1 -5.4
2020-Jan-23 11:40 165 -5.4
2020-Jan-23 11:35 165 -5.4
2020-Jan-23 11:30 185 -5.3
2020-Jan-23 11:25 185 -5.3
2020-Jan-23 11:20 190 -5.0
2020-Jan-23 11:15 190 -5.0
2020-Jan-23 11:10 190 0 gusting 1 -5.0
2020-Jan-23 11:05 190 0 gusting 1 -4.9
2020-Jan-23 11:00 190 -5.0
2020-Jan-23 10:55 190 -5.0
2020-Jan-23 10:50 190 1 gusting 2 -4.9
2020-Jan-23 10:45 195 1 gusting 2 -4.9
2020-Jan-23 10:40 195 1 gusting 1 -4.9
2020-Jan-23 10:35 240 -5.0
2020-Jan-23 10:30 240 -5.0
2020-Jan-23 10:25 240 -5.0
2020-Jan-23 10:20 245 -5.2
2020-Jan-23 10:15 245 -5.2
2020-Jan-23 10:10 245 -5.0
2020-Jan-23 10:05 245 -5.2
2020-Jan-23 10:00 245 -5.2